Location: Kings Park
(40.8862°N, 73.2573°W)
Time: 08:24:14
(UTC+00:00)

Cosmos 1076 Rocket - Pass Details

Date: 29 October 2020
Orbit: 589 x 612 km, 82.5° (Epoch: 02 December)

Event Time Altitude Azimuth Distance (km) Brightness Sun altitude
Rises 23:18:43 0° 356° (N) 2,832 7.0 -16.9°
Reaches altitude 10° 23:20:58 10° 0° (N) 1,928 6.0 -17.3°
Maximum altitude 23:25:09 58° 80° (E) 695 3.4 -18.1°
Drops below altitude 10° 23:29:20 10° 160° (SSE) 1,921 5.9 -18.9°
Sets 23:31:34 0° 164° (SSE) 2,821 6.8 -19.3°
